Location: Olsztyn
(53.7767°N, 20.4765°E)
Time: 07:05:53
(UTC+01:00)

Transit 4A - Pass Details

Date: 01 October 2022
Orbit: 871 x 972 km, 66.8° (Epoch: 06 December)

Event Time Altitude Azimuth Distance (km) Brightness Sun altitude
Exits shadow 01:57:52 32° 344° (NNW) 1,505 9.2 -36.1°
Drops below altitude 10° 02:02:43 10° 38° (NE) 2,568 11.0 -35.7°
Sets 02:05:28 0° 48° (NE) 3,497 11.8 -35.5°
